Stocks held by HDFC Small Cap Fund - Regular Plan

#Stock NamePrevious Number of SharesPrevious DateCurrent Number of SharesPercentage ChangeLast Changed
1DB Corp Ltd78,0002024-07-224,922,1506,210.45%2024-07-23
2Bajel Projects Ltd340,0002024-07-225,545,8221,531.12%2024-07-23
3Aditya Vision Ltd17,3002024-07-22660,9173,720.33%2024-07-23
4Voltamp Transformers Ltd90,1902024-07-22494,626448.43%2024-07-23
5Vesuvius India Ltd231,2562024-07-22389,78468.55%2024-07-23
6Vardhman Textiles Ltd (VTL)3,595,4042024-07-229,261,551157.59%2024-07-23
7Unichem Laboratories Ltd313,2252024-07-225,473,1341,647.35%2024-07-23
8Transport Corporation of India Ltd (TCI)782,3322024-07-224,125,478427.33%2024-07-23
9Great Eastern Shipping Company Ltd (GESHIP)750,0002024-07-226,527,764770.37%2024-07-23
10Suprajit Engineering Ltd194,6572024-07-228,884,0174,463.93%2024-07-23
11Sonata Software Ltd1,533,1922024-07-2218,679,8101,118.36%2024-07-23
12SKF India Ltd429,6232024-07-221,049,491144.28%2024-07-23
13Shoppers Stop Ltd1,428,7012024-07-223,603,259152.21%2024-07-23
14Sharda Cropchem Ltd1,977,8702024-07-225,406,610173.36%2024-07-23
15Sadbhav Engineering Ltd5,291,7842024-07-229,392,74277.50%2024-07-23
16Repco Home Finance Ltd750,0002024-07-223,733,750397.83%2024-07-23
17Redington Ltd9,000,0002024-07-2213,916,33154.63%2024-07-23
18Radico Khaitan Ltd1,319,2762024-07-221,181,663-10.43%2024-07-23
19PVR Inox Ltd867,5992024-07-222,861,416229.81%2024-07-23
20Procter & Gamble Health Ltd145,8872024-07-22326,834124.03%2024-07-23
21Power Mech Projects Ltd51,5302024-07-221,215,0782,258.00%2024-07-23
22PNC Infratech Ltd3,565,8842024-07-2212,886,529261.38%2024-07-23
23Oriental Carbon & Chemicals Ltd56,2602024-07-22545,790870.12%2024-07-23
24NRB Bearings Ltd2,102,6792024-07-228,748,982316.09%2024-07-23
25Nilkamal Ltd72,9572024-07-22724,300892.78%2024-07-23
26LG Balakrishnan & Bros Ltd55,0002024-07-222,719,4674,844.49%2024-07-23
27La Opala RG Ltd325,6992024-07-227,613,6872,237.65%2024-07-23
28KEI Industries Ltd1,400,0002024-07-221,499,0057.07%2024-07-23
29KEC International Ltd2,492,0522024-07-225,200,000108.66%2024-07-23
30Jagran Prakashan Ltd746,7282024-07-223,185,742326.63%2024-07-23
31Insecticides India Ltd2,596,8002024-07-212,596,8000.00%2024-07-23
32Indian Bank6,969,6122024-07-229,723,91039.52%2024-07-23
33IFGL Refractories Ltd472,4082024-07-222,752,036482.55%2024-07-23
34IDFC Ltd3,890,0002024-07-2251,071,5441,212.89%2024-07-23
35Gujarat Pipavav Port Ltd2,100,2152024-07-229,250,000340.43%2024-07-23
36Greenlam Industries Ltd8,757,5042024-07-221,777,521-79.70%2024-07-23
37GNA Axles Ltd3,202,1022024-07-213,202,1020.00%2024-07-23
38Gateway Distriparks Ltd4,275,8512024-07-2233,458,557682.50%2024-07-23
39Gabriel India Ltd518,4942024-07-2212,036,0002,221.34%2024-07-23
40Fortis Healthcare Ltd6,970,7452024-07-2212,253,27575.78%2024-07-23
41Firstsource Solutions Ltd1,610,0962024-07-2249,576,1782,979.08%2024-07-23
42Finolex Industries Ltd1,395,1072024-07-2212,191,817773.90%2024-07-23
43Tata Metaliks Ltd103,2922024-07-221,954,8641,792.56%2024-07-23
44ERIS Lifesciences Ltd450,0002024-07-225,098,7131,033.05%2024-07-23
45Equitas Small Finance Bank Ltd7,451,9882024-07-2251,962,349597.30%2024-07-23
46Emami Ltd3,676,2252024-07-223,365,892-8.44%2024-07-23
47EIH Ltd3,774,2472024-07-227,342,63894.55%2024-07-23
48eClerx Services Ltd204,5942024-07-223,642,5091,680.36%2024-07-23
49Delta Corp Ltd11,114,0232024-07-2211,289,7151.58%2024-07-23
50DCB Bank Ltd11,340,1182024-07-2213,948,72223.00%2024-07-23
51D B Corp Ltd63,0002024-07-224,922,1507,712.94%2024-07-23
52Chambal Fertilisers & Chemicals Ltd1,102,2402024-07-228,900,000707.45%2024-07-23
53Chalet Hotels Ltd3,545,6002024-07-225,468,72454.24%2024-07-23
54BEML Ltd729,7892024-07-22800,0009.62%2024-07-23
55Bank of Baroda9,690,0002024-07-2242,828,792341.99%2024-07-23
56Bajaj Electricals Ltd693,0152024-07-225,582,540705.54%2024-07-23
57Bajaj Consumer Care Ltd1,164,8692024-07-229,432,635709.76%2024-07-23
58Aster DM Healthcare Ltd935,5722024-07-2216,630,8861,677.62%2024-07-23
59Apar Industries Ltd511,8032024-07-22575,37112.42%2024-07-23
60Advanced Enzyme Technologies Ltd115,9182024-07-223,979,6893,333.19%2024-07-23

About the Author

Author Avatar
Getaka

Getaka, CFA, a financial analyst with 15 years of experience in the industry. Getaka holds an MBA degree and the Chartered Financial Analyst designation, demonstrating his profound understanding of financial analysis and investment management. Throughout his career, he has conducted numerous financial analyses and due diligence processes for companies in the industry, and has a strong track record of identifying key trends and opportunities. He leverages his expertise to deliver a thorough financial analysis of a company, encompassing its financial performance, key ratios, future prospects, and risks. Getaka is committed to providing accurate, reliable, and trustworthy information to help readers make informed decisions about their finances and investments.